Other Surface Observations
Issued by NWS Tucson, AZ

Home | Current Version | Previous Version | Text Only | Print | Product List | Glossary On
Versions: 1 2 3 4 5 6 7 8 9 10 11 12 13 14 15 16 17 18 19 20 21 22 23 24 25 26 27 28 29 30 31 32 33 34 35 36 37 38 39 40 41 42 43 44 45 46 47 48 49 50
000
SXUS55 KTWC 240116
OSOTWC

WEATHER ROUNDUP FOR SOUTHEAST ARIZONA
NATIONAL WEATHER SERVICE TUCSON AZ
615 PM MST WED JUL 23 2014

AZZ504>506-514-240215-
LOCATION       SKY/WX    TMP DP  RH WIND       PRES   REMARKS
TUCSON         PTSUNNY  104  52  17 E14       29.93F HX 101
DAVIS-MONTHAN  CLOUDY   102  54  20 E12       29.92S HX 100
CHILDRENS PARK N/A      102  50  18 SE4               PIMA CO DEQ
ALVERNON/22ND  N/A      N/A N/A N/A N/A               PIMA CO DEQ
CHERRY/GLENN   N/A      N/A N/A N/A N/A               PIMA CO DEQ
TANGERINE      N/A      101 N/A N/A NW6               PIMA CO DEQ
CONTL RANCH    N/A      103  54  20 N7                PIMA CO DEQ
GRANT/1ST      N/A      103  50  17 W6                PIMA CO DEQ
CRAYCROFT/22ND N/A      N/A N/A N/A N/A               PIMA CO DEQ
GOLFLINKS/KOLB N/A      N/A N/A N/A N/A               PIMA CO DEQ
AJO/12TH       N/A      103  50  17 E7                PIMA CO DEQ
SAGUARO EAST   N/A      N/A N/A N/A N/A               PIMA CO DEQ
FAIRGROUNDS    N/A      100 N/A N/A E13               PIMA CO DEQ
SAGUARO        N/A      103  50  17 SE3G11            *SABINO CYN
SAN CARLOS     N/A       97  55  25 SE17G27           *SAN CARLOS
GREEN VALLEY   N/A      102  49  17 E6                PIMA CO DEQ
HORSE CAMP CYN N/A       92  57  31 E28G39            *ARAVAIPA CYN
RINCON MTNS    N/A       73  50  44 E4G13             *NR MANNING CAMP
$$

AZZ509>511-240215-
LOCATION       SKY/WX    TMP DP  RH WIND       PRES   REMARKS
SAFFORD        CLOUDY    91  55  29 E12       30.04F
STRAY HORSE    N/A       70  52  52 E4                *
TRAIL CABIN    N/A       70  58  65 CALM              *N OF GRANVILLE
BLACK HILLS    N/A       93  56  29 SE11G24           *N OF FT THOMAS
DRY LAKE       N/A       66  57  73 SE5               *NATANES MTNS
NOON CREEK     N/A       83  57  41 SW2G10            *PINALENO MTNS
COLUMBINE      N/A       58  52  80 CALM              *PINALENO MTNS
GUTHRIE        N/A       74  55  51 E8G13             *SW OF GUTHRIE
$$

AZZ502-503-513-240215-
LOCATION       SKY/WX    TMP DP  RH WIND       PRES   REMARKS
NOGALES        PTSUNNY   93  53  25 E18G24    30.04S
SELLS          N/A       94  66  40 NE3G10            *
SASABE         N/A       96  53  24 S10G19            *ALTAR VLY
HOPKINS        N/A       80  48  33 E17G30            *SANTA RITA MTNS
CARR CYN       N/A       84  49  30 E3G10             *W OF HEREFORD
$$

AZZ507-508-512-240215-
LOCATION       SKY/WX    TMP DP  RH WIND       PRES   REMARKS
SIERRA VISTA   PTSUNNY   91  52  25 E16       30.14F
DOUGLAS        MOSUNNY   92  51  24 SE13      30.09F
EMPIRE MTNS    N/A       90  50  26 E14G24            *LAS CIENEGAS NCA
MULESHOE RANCH N/A       82  60  47 NE11G20           *PRESERVE
HEADQUARTERS   N/A       80  57  45 E4G17             *CHIRICAHUA MTNS
$$

.............................NOTES.............................
THIS IS AN AUTOMATED COLLECTIVE WITH MINIMAL QUALITY CONTROL.
PIMA CO DEQ SITES HAVE NONSTANDARD WIND SENSOR HEIGHTS.
PIMA CO DEQ SITES DO NOT REPORT WIND GUSTS.
* INDICATES WIND SENSORS LOCATED AT 20 FEET INSTEAD OF 33 FEET.
..............................KEY..............................
SKY/WX - SKY CONDITION/WEATHER
TMP    - TEMPERATURE IN FAHRENHEIT
DP     - DEWPOINT IN FAHRENHEIT
RH     - RELATIVE HUMIDITY IN PERCENT
WIND   - DIRECTION AND SPEED IN MILES PER HOUR (MPH)
VRB    - VARIABLE WIND DIRECTION
PRES   - MEAN SEA LEVEL PRESSURE IN INCHES OF MERCURY
         F - FALLING PRESSURE   R - RISING PRESSURE
         S - STEADY PRESSURE
VSB    - VISIBILITY IN MILES
HX     - HEAT INDEX IN FAHRENHEIT
WCI    - WIND CHILL INDEX IN FAHRENHEIT
N/A    - NOT AVAILABLE
AFB    - AIR FORCE BASE
         DAVIS-MONTHAN IS DAVIS-MONTHAN AIR FORCE BASE
CYN    - CANYON
MTNS   - MOUNTAINS
NCA    - NATIONAL CONSERVATION AREA
NR     - NEAR
VLY    - VALLEY
CONTL  - CONTINENTAL
PIMA CO DEQ - PIMA COUNTY DEPT OF ENVIRONMENTAL QUALITY



USA.gov is the U.S. government's official web portal to all federal, state and local government web resources and services.